CZ-3B DEB, 42458

Orbit data source: Space-Track

CZ-3B DEB, 42458 is space debris in HEO originally from a launch on Sat, 04 Sep 2010 UTC launched from the Xichang Space Center, China (XSC). Debris objects in space refer to the collection of defunct objects orbiting the Earth. Examples of debris include non-operational satellites, rocket bodies, and fragments generated from explosions, collisions, or faulty payload assembly.

Loading next visibility...
Identifier
42458, 2010-042Z
Orbit
HEO
Country
Flag of CNCN / PRC
Related business
Manufacturer
CALT
Mission
Spacecraft
Bus & Motor
Unknown
Mass
Unknown
Launch date (UTC)
2010-09-04 (16 years ago)
Launch vehicle
Unknown
Launch site
Xichang Space Center, China (XSC)
Object type
Payload
Rocket body
Debris
Shape & HBR
Unknown shape, 0.1 m
Radar Cross Section
Medium (>0.1 m² and <1 m²)

Expand to show TLE details & history
Last TLE update: 1 week ago

TLE from 1 week ago
0 CZ-3B DEB
1 42458U 10042Z   26065.67111693  .00000037  00000-0  50396-2 0  9998
2 42458  30.4542 278.7920 7498660 189.3106 137.9215  1.81273924 74619
Epoch: 2026-03-06T16:06Z
TLE epoch observation values (Epoch: 2026-03-06T16:06:24.502Z)
Latitude
-0.00016°
Longitude
-127.23058°
Altitude
41,414.502 km
Speed
1.628 km/s
True Right ascension
18h 35m 06s
True Declination
0° 00' 01"
Sunlit
Object was in daylight at epoch
Visualization orbit readout
Latitude
Unknown
Longitude
Unknown
Altitude
Unknown
Speed
Unknown
Apparent Right ascension
Unknown
Apparent Declination
Unknown
Sunlit
N/A
Visualization observer readout
Local Sidereal Time
02:01:32
Azimuth
Unknown
Elevation
Unknown
Doppler factor
Unknown
Orbital elements
Apogee altitude
43,345.967 km
Perigee altitude
729.658 km
Semi-major axis
28,415.95 km
Eccentricity
0.74987
Inclination
30.4542°
RAAN
278.792°
Arg. of periapsis
189.3106°
True anomaly
170.67002°
Mean anomaly
137.9215°
Eccentric anomaly
155.6417°
Mean motion
0.45311 °/min
Orbital period
794.52 mins
BSTAR
0.0050396
Loading maneuver chart data...
Computing Atmospheric mass density...
Loading historical data...
Loading historical data...
Loading historical data...
Loading historical data...
Loading historical data...
Loading historical data...
Loading historical data...

Documentation

Showing up to 5 results
|